Вернуться в каталог

KOREASAT 7

АктивенСвязьGEO
NORAD 42691·PAYLOAD·🇰🇷 South Korea

Запущен May 4, 2017 с Guiana Space Centre

Loading…

TLE

СвежийSource: Space-Track

Эпоха: Sep 14, 2026, 14:21 UTC

1 42691U 17023A   26257.59806778 -.00000370  00000-0  00000-0 0  9998
2 42691   0.0221  36.4859 0000952 151.6227 136.6795  1.00271929 34267

Отслеживайте KOREASAT 7 в реальном времени с AllMySat

Download on the App Store